Satellite: NOAA-17
Catalog number: 27453
Epoch time:      12087.89102679
Element set:    0649
Inclination:      098.3447 deg
RA of node:       119.0060 deg
Eccentricity:    0.0012397
Arg of perigee:   039.3178 deg
Mean anomaly:     320.8878 deg
Mean motion:   14.24408973 rev/day
Decay rate:       2.03e-06 rev/day^2
Epoch rev:           50718
Checksum:              327

Satellite: NOAA-18
Catalog number: 28654
Epoch time:      12087.76792161
Element set:    0126
Inclination:      099.0395 deg
RA of node:       045.2159 deg
Eccentricity:    0.0014818
Arg of perigee:   026.8682 deg
Mean anomaly:     333.3231 deg
Mean motion:   14.11624239 rev/day
Decay rate:       1.47e-06 rev/day^2
Epoch rev:           35307
Checksum:              306

Satellite: NOAA-19
Catalog number: 33591
Epoch time:      12087.89928860
Element set:    0316
Inclination:      098.8591 deg
RA of node:       028.7218 deg
Eccentricity:    0.0013275
Arg of perigee:   250.5217 deg
Mean anomaly:     109.4564 deg
Mean motion:   14.11311942 rev/day
Decay rate:       2.75e-06 rev/day^2
Epoch rev:           16154
Checksum:              314

/EX
SB KEPS @ AMSAT  $ORB12088.M
Orbital Elements  12088.MISC

HR AMSAT ORBITAL ELEMENTS FOR MANNED AND MISCELLANEOUS SATELLITES
FROM WA5QGD FORT WORTH,TX March 28, 2012
Send SUBSCRIBE KEPS/UNSUBSCRIBE KEPS to majordomo@amsat.org only
BID: ORB12088.M
TO ALL RADIO AMATEURS BT

Satellite: HUBBLE
Catalog number: 20580
Epoch time:      12088.01616448
Element set:     971
Inclination:      028.4720 deg
RA of node:       314.6585 deg
Eccentricity:    0.0003010
Arg of perigee:   268.6534 deg
Mean anomaly:     091.3672 deg
Mean motion:   15.02311953 rev/day
Decay rate:      1.490e-05 rev/day^2
Epoch rev:             251
Checksum:              262

Satellite: ISS
Catalog number: 25544
Epoch time:      12088.55601852
Element set:     265
Inclination:      051.6416 deg
RA of node:       166.1861 deg
Eccentricity:    0.0015617
Arg of perigee:   206.0102 deg
Mean anomaly:     352.1545 deg
Mean motion:   15.59686678 rev/day
Decay rate:     1.8472e-04 rev/day^2
Epoch rev:           76544
Checksum:              308

Satellite: CO-58
Catalog number: 28895
Epoch time:      12087.62899679
Element set:    0135
Inclination:      097.9248 deg
RA of node:       317.4379 deg
Eccentricity:    0.0018719
Arg of perigee:   050.1880 deg
Mean anomaly:     310.0970 deg
Mean motion:   14.60535523 rev/day
Decay rate:       4.40e-06 rev/day^2
Epoch rev:           34175
Checksum:              341

Satellite: FALCON
Catalog number: 30776
Epoch time:      12087.91366001
Element set:     311
Inclination:      035.4325 deg
RA of node:       053.0301 deg
Eccentricity:    0.0002336
Arg of perigee:   001.1819 deg
Mean anomaly:     358.8906 deg
Mean motion:   15.06927314 rev/day
Decay rate:      3.319e-05 rev/day^2
Epoch rev:           27798
Checksum:              274

Satellite: MAST
Catalog number: 31126
Epoch time:      12087.95722118
Element set:    0424
Inclination:      097.8761 deg
RA of node:       103.8026 deg
Eccentricity:    0.0094208
Arg of perigee:   004.5805 deg
Mean anomaly:     355.6238 deg
Mean motion:   14.54079859 rev/day
Decay rate:       4.08e-06 rev/day^2
Epoch rev:           26246
Checksum:              304

Satellite: CAPE1
Catalog number: 31130
Epoch time:      12088.47539496
Element set:     430
Inclination:      097.8869 deg
RA of node:       100.7248 deg
Eccentricity:    0.0102489
Arg of perigee:   015.7066 deg
Mean anomaly:     344.7290 deg
Mean motion:   14.52831853 rev/day
Decay rate:       6.20e-06 rev/day^2
Epoch rev:           26205
Checksum:              301

Satellite: COMPASS
Catalog number: 32787
Epoch time:      12087.67655182
Element set:    0263
Inclination:      097.8073 deg
RA of node:       150.8020 deg
Eccentricity:    0.0014744
Arg of perigee:   331.1486 deg
Mean anomaly:     028.8933 deg
Mean motion:   14.83670127 rev/day
Decay rate:      1.786e-05 rev/day^2
Epoch rev:           21172
Checksum:              307

Satellite: AAUSAT2
Catalog number: 32788
Epoch time:      12087.66315361
Element set:    0252
Inclination:      097.8113 deg
RA of node:       151.1267 deg
Eccentricity:    0.0014081
Arg of perigee:   332.6351 deg
Mean anomaly:     027.4138 deg
Mean motion:   14.83961187 rev/day
Decay rate:      1.341e-05 rev/day^2
Epoch rev:           21174
Checksum:              282

Satellite: DO-64
Catalog number: 32789
Epoch time:      12087.71889867
Element set:    0267
Inclination:      097.8195 deg
RA of node:       152.9102 deg
Eccentricity:    0.0013905
Arg of perigee:   328.2281 deg
Mean anomaly:     031.8097 deg
Mean motion:   14.85217948 rev/day
Decay rate:      2.262e-05 rev/day^2
Epoch rev:           21178
Checksum:              346

Satellite: CO-66
Catalog number: 32791
Epoch time:      12087.63568486
Element set:    0256
Inclination:      097.8080 deg
RA of node:       150.5641 deg
Eccentricity:    0.0015075
Arg of perigee:   331.1342 deg
Mean anomaly:     028.8999 deg
Mean motion:   14.83145540 rev/day
Decay rate:      1.099e-05 rev/day^2
Epoch rev:           21165
Checksum:              323

